RH
13 13 13 12 12 10 10 9 9 9 8 8 7 7 6 5 6 6 8 12 8 8 23 42 50 39 34 40 51 32 30 42 33
15 15 14 13 10 11 10 10 10 10 9 9 8 8 8 8 7 6 5 4 7 10 8 15 37 49 46 37 36 46 39 35 41
16 15 13 11 11 10 11 11 11 10 10 9 9 8 8 8 8 8 7 7 5 4 8 9 14 31 54 51 50 37 48 43 37
13 12 11 10 10 10 11 11 11 11 11 10 9 9 8 9 9 8 7 7 6 6 4 10 13 13 26 56 58 49 50 52 40
14 13 13 12 12 12 13 13 13 12 11 10 9 9 8 8 8 8 8 8 7 6 6 5 6 20 12 21 54 65 53 58 56
16 16 16 15 15 15 14 12 11 8 7 6 5 5 4 5 4 4 5 5 6 7 6 6 8 19 25 19 30 60 69 62 61
17 17 17 16 15 14 12 11 8 6 5 4 4 4 3 4 4 4 4 4 4 5 6 6 5 12 22 26 24 44 68 73 66
17 17 16 14 13 12 10 9 7 5 4 5 5 5 5 5 6 5 5 6 5 4 4 6 6 6 18 24 28 34 54 74 78
16 16 16 15 13 9 7 6 6 6 6 7 8 7 7 8 8 8 8 7 6 5 4 4 5 6 8 24 25 33 40 66 80
20 18 15 13 11 9 6 5 6 6 6 6 7 8 9 9 10 9 9 8 7 6 5 5 4 4 6 10 26 30 40 50 74
19 16 14 11 9 4 4 5 5 5 5 5 6 8 8 9 9 8 7 7 7 6 6 5 5 4 4 6 15 32 38 46 64
18 16 12 9 6 5 6 5 5 5 5 6 8 8 8 9 10 9 8 6 7 6 6 6 6 6 5 6 10 24 39 45 56
18 15 10 8 7 7 6 7 8 8 8 9 10 11 14 13 9 6 8 8 9 9 9 8 6 7 7 8 6 24 32 53 51
16 13 11 9 7 7 8 10 9 9 10 12 16 20 16 8 10 11 13 15 18 17 17 19 12 11 10 10 8 7 32 46 98
15 12 9 9 9 10 11 11 12 13 17 23 21 16 8 6 8 16 24 28 37 38 58 45 29 22 15 14 11 8 21 45 88
17 15 14 12 11 12 14 14 15 20 28 24 18 9 6 13 24 40 34 35 42 51 59 70 58 33 26 20 14 14 19 52 66
18 15 13 13 13 16 19 14 22 31 23 18 11 7 18 50 84 63 52 43 40 45 51 64 60 51 38 31 22 14 51 66 64
18 17 16 17 20 21 18 29 34 26 21 19 12 15 42 52 83 92 66 52 46 41 43 45 54 53 49 39 35 25 32 55 93
22 20 20 23 23 22 32 36 29 24 23 19 14 23 63 71 60 63 84 67 47 46 44 36 51 81 54 45 40 38 28 41 82
23 23 24 25 25 33 37 30 24 23 20 18 16 19 46 80 73 64 51 75 49 45 39 33 55 83 87 47 46 42 33 35 76
Wind_Speed
23 23 23 23 21 19 20 21 21 22 23 25 26 25 25 26 25 25 26 28 30 32 33 34 35 35 37 34 32 31 32 32 29
26 26 26 24 21 22 23 25 25 27 28 28 28 29 30 31 30 29 29 30 32 33 34 35 36 37 37 38 37 35 33 34 33
27 26 24 23 25 27 28 29 29 30 32 33 34 34 34 34 34 34 34 32 34 34 36 36 38 38 39 40 39 39 37 35 35
26 26 26 27 30 32 32 35 36 38 40 40 41 42 44 43 40 39 38 37 37 37 37 37 39 40 40 41 42 42 39 38 38
28 28 30 32 33 35 37 39 40 42 43 45 46 48 51 52 53 51 48 44 44 43 42 42 42 43 43 44 44 44 43 41 41
31 31 33 35 36 38 40 42 42 44 46 48 50 51 52 53 53 55 57 56 54 51 50 48 47 47 46 45 46 46 47 44 43
33 33 33 36 41 42 43 45 45 49 51 53 54 57 60 60 61 62 62 61 62 58 55 55 53 52 51 49 49 49 48 49 46
33 34 37 41 42 44 45 47 50 52 54 57 62 65 67 67 68 72 74 75 69 67 62 59 59 58 55 54 53 53 52 51 51
37 38 41 43 45 46 49 51 54 57 64 66 69 72 77 80 81 81 84 84 81 76 75 69 65 62 61 57 57 57 56 54 54
40 41 44 45 48 51 54 57 64 68 71 74 77 81 83 87 91 95 96 91 90 86 82 81 77 71 67 64 61 62 60 58 57
41 43 46 49 52 54 59 66 70 73 78 80 84 87 92 97 105 106 106 106 101 98 93 91 87 80 74 70 67 64 65 62 60
46 49 52 55 56 62 68 73 77 81 84 88 93 97 103 107 114 118 115 104 99 96 95 94 92 88 81 76 72 68 69 66 62
50 53 56 59 65 70 77 82 84 87 93 95 100 106 112 118 117 99 93 87 83 83 84 85 91 91 85 82 79 72 71 66 60
53 57 63 67 72 76 83 87 91 94 99 104 107 111 117 107 83 71 67 68 68 72 78 84 84 85 85 82 82 78 74 72 58
56 62 67 72 77 82 87 90 95 101 105 106 108 112 97 75 60 56 59 61 62 62 58 68 84 85 84 84 82 84 81 83 77
61 67 73 77 82 86 90 94 101 107 110 110 108 88 65 56 53 53 53 56 59 60 63 63 71 81 87 89 88 91 88 85 89
66 71 76 80 85 89 94 101 106 110 106 98 83 62 46 47 45 45 41 45 49 50 55 61 67 72 82 90 91 94 82 86 96
70 74 79 84 89 93 101 107 109 101 89 72 64 52 44 41 37 40 37 38 43 45 47 53 58 64 71 79 85 92 90 88 82
74 78 83 87 92 99 106 108 101 90 73 63 57 49 47 40 31 34 36 36 38 40 40 44 49 50 62 69 75 80 86 92 87
77 81 86 91 98 104 107 103 94 78 68 60 53 46 45 40 34 27 32 33 39 37 36 39 43 45 49 60 70 74 81 90 87
Wind_Direction
300 300 299 299 297 296 296 296 298 298 296 296 294 292 291 288 288 286 282 277 271 270 267 266 260 253 258 258 261 255 251 249 246
300 299 298 296 291 290 291 294 297 300 302 300 298 295 296 295 290 284 282 281 278 273 267 265 262 260 253 253 256 259 253 248 245
298 297 293 286 286 288 292 296 300 300 302 301 299 299 297 294 292 290 284 278 275 272 271 267 263 260 258 253 251 252 256 251 245
298 295 292 287 287 288 292 295 298 299 300 299 299 298 296 296 295 291 285 281 275 270 268 266 263 259 257 256 253 250 248 253 248
296 293 291 289 289 291 293 296 297 298 297 298 299 298 297 296 294 293 288 284 278 272 267 264 263 260 255 253 253 252 248 246 249
301 296 292 291 294 296 298 300 302 305 305 304 303 302 300 297 296 295 293 287 281 277 271 263 260 258 256 252 250 249 249 245 245
300 295 293 296 297 297 299 301 302 306 306 304 305 305 305 303 300 296 294 291 284 276 271 266 260 255 253 251 248 247 246 247 242
298 295 295 299 299 300 301 301 299 300 305 305 307 303 300 300 301 299 295 292 284 278 270 265 260 256 250 248 246 244 244 244 244
299 297 297 299 300 300 302 303 301 299 299 297 298 299 299 297 295 293 291 288 285 275 273 268 262 255 250 246 243 243 242 241 241
297 297 299 299 300 301 302 301 301 300 301 300 298 297 295 294 292 291 289 283 281 276 267 268 266 257 250 246 241 239 239 239 239
296 297 299 300 301 301 301 302 302 303 302 301 299 297 296 294 292 288 287 283 278 273 268 263 260 258 249 245 243 237 235 235 236
298 301 302 302 302 303 302 303 301 300 300 298 297 297 296 295 295 291 286 280 273 268 262 258 256 252 247 241 239 237 232 232 233
303 303 304 304 304 303 303 302 302 301 302 301 301 299 302 300 297 287 280 274 267 259 255 252 251 247 242 238 236 231 229 227 236
305 307 307 306 306 305 305 306 306 306 306 302 302 304 304 300 290 283 273 265 259 251 245 240 238 239 237 232 230 227 224 218 223
308 310 309 307 308 306 307 306 307 306 304 303 305 307 304 294 285 274 267 260 255 248 242 238 236 231 227 224 221 219 219 217 219
311 311 310 310 310 309 310 310 308 309 307 309 309 306 297 288 282 278 270 263 257 251 241 235 232 232 227 220 219 217 216 219 213
313 313 313 312 312 312 312 310 311 310 312 312 308 301 291 285 285 280 272 263 259 255 248 239 233 228 228 225 220 219 219 217 217
314 314 314 314 315 314 313 313 313 315 313 309 305 303 295 283 279 276 271 264 257 253 248 243 236 229 225 226 227 223 221 218 222
316 316 316 316 316 315 314 314 316 315 310 307 302 299 297 290 271 270 272 269 260 253 247 240 236 226 227 223 224 225 223 220 219
316 318 317 317 317 316 315 317 316 310 308 305 301 293 293 290 276 257 263 273 264 254 241 233 228 223 230 224 222 222 222 222 220